Regional Weather Roundup
Issued by NWS

Home | Current Version | Previous Version | Graphics & Text | Print | Product List | Glossary On
Versions: 1 2 3 4 5 6 7 8 9 10 11 12 13 14 15 16 17 18 19 20 21 22 23 24 25 26 27 28 29 30 31 32 33 34 35 36 37 38 39 40 41 42 43 44 45 46 47 48 49 50
000
ASUS45 KBOI 241210
RWRID
WEATHER ROUNDUP FOR IDAHO
NATIONAL WEATHER SERVICE BOISE ID
500 AM MST MON NOV 24 2014

NOTE: "FAIR" INDICATES FEW OR NO CLOUDS BELOW 12000 FEET
WITH NO SIGNIFICANT WEATHER AND/OR OBSTRUCTIONS TO VISIBILITY

IDZ012-014-241300-
SOUTHWEST IDAHO


CITY           SKY/WX    TMP DP  RH WIND       PRES   REMARKS
BOISE          CLEAR     33  28  81 NW6       30.32R WCI  28
CALDWELL       NOT AVBL
MOUNTAIN HOME  PTCLDY    33  33  99 NW12      30.31S WCI  25
$$

IDZ016-017-241300-
SOUTHCENTRAL IDAHO


CITY           SKY/WX    TMP DP  RH WIND       PRES   REMARKS
BURLEY         CLEAR     32  26  78 W20G30    30.19R WCI  20
JEROME         CLEAR     31  26  82 W14       30.25R WCI  21
TWIN FALLS     CLEAR     34  26  72 W16       30.26R WCI  24
$$

IDZ019>023-241300-
SOUTHEAST IDAHO


CITY           SKY/WX    TMP DP  RH WIND       PRES   REMARKS
IDAHO FALLS    PTCLDY    26  23  88 SW10      30.12R WCI  16
POCATELLO      CLEAR     29  26  89 SW15      30.17R WCI  18
REXBURG        PTCLDY    24  20  84 S6        30.11R WCI  17
$$

IDZ006-010-011-018-031-032-241300-
CENTRAL IDAHO MOUNTAINS


CITY           SKY/WX    TMP DP  RH WIND       PRES   REMARKS
MCCALL         MOCLDY    16  13  88 CALM      30.24R
HAILEY         CLEAR     25  19  80 NW7       30.17S WCI  17
STANLEY          N/A     21  11  65 CALM      30.20R
SALMON         CLOUDY    27  25  93 CALM      30.19R
CHALLIS        PTCLDY    22  20  92 CALM      30.17R
$$

IDZ002-004-006-007-026-241300-
NORTHERN IDAHO


CITY           SKY/WX    TMP DP  RH WIND       PRES   REMARKS
LEWISTON       CLEAR     39  29  67 S7        30.31R WCI  34
LOWELL           N/A     35  34  96 CALM      30.35R
COEUR D`ALENE  CLEAR     30  27  86 S8        30.24F WCI  23
MULLAN PASS    CLOUDY    24  21  88 CALM      30.12R
$$



USA.gov is the U.S. government's official web portal to all federal, state and local government web resources and services.